Weather Roundup
Issued by NWS Corpus Christi, TX

Home | Current Version | Previous Version | Text Only | Print | Product List | Glossary On
Versions: 1 2 3 4 5 6 7 8 9 10 11 12 13 14 15 16 17 18 19 20 21 22 23 24 25 26 27 28 29 30 31 32 33 34 35 36 37 38 39 40 41 42 43 44 45 46 47 48 49 50
000
ASUS44 KCRP 231010
HRRCRP

SOUTH TEXAS REGIONAL WEATHER ROUNDUP
NATIONAL WEATHER SERVICE CORPUS CHRISTI TX
500 AM CDT WED AUG 23 2017


TXZ229>244-231100-
...CORPUS CHRISTI AREA OBSERVATIONS...

CITY           SKY/WX    TMP DP  RH WIND       PRES   REMARKS
CORPUS CHRISTI PTCLDY    74  73  97 CALM      29.95F
NAS CORPUS CHR CLEAR     81  77  88 CALM      29.95F
ROCKPORT       CLEAR     78  74  87 W3        29.95F
KINGSVILLE ARP FAIR      74  74 100 CALM      29.96S
KINGSVILLE NAS CLEAR     75  75 100 CALM      29.96S
ALICE          CLEAR     72  70  93 CALM      29.95F
FALFURRIAS     CLEAR     73  71  94 CALM      29.95F
$$

...VICTORIA AREA OBSERVATIONS...

CITY           SKY/WX    TMP DP  RH WIND       PRES   REMARKS
PORT LAVACA    CLEAR     74  71  91 NW5       29.97S
VICTORIA       CLEAR     74  71  91 CALM      29.97F
BEEVILLE       FAIR     N/A N/A N/A CALM      29.97S HAZE
PLEASANTON     CLEAR     73  70  91 CALM      29.99F
SAN ANTONIO    CLEAR     76  70  82 W5        30.01F
$$

...LAREDO AREA OBSERVATIONS...

CITY           SKY/WX    TMP DP  RH WIND       PRES   REMARKS
LAREDO         CLEAR     79  72  79 SE7       29.97S
COTULLA        CLEAR     76  70  82 E3        29.98S
DEL RIO        CLEAR     80  67  64 E8        29.98F
MCALLEN        CLEAR     79  73  82 CALM      29.95F
HEBBRONVILLE   CLEAR     72  69  91 CALM      29.98F
$$

...OTHER TEXAS OBSERVATIONS...

CITY           SKY/WX    TMP DP  RH WIND       PRES   REMARKS
BROWNSVILLE    CLEAR     77  77 100 NW3       29.94F
HOUSTON        PTCLDY    77  74  90 CALM      29.97F
COL. STATION   PTCLDY    76  71  85 W3        29.98S
AUSTIN         CLEAR     76  72  87 CALM      29.99S
WACO           MOCLDY    79  70  74 S9        29.99R
FORT WORTH     MOCLDY    78  71  79 N12       30.02R
WICHITA FALLS  CLOUDY    71  69  93 NE6       30.04S
LUBBOCK        CLOUDY    66  64  93 N6        30.15F
EL PASO        MOCLDY    75  65  70 E6        30.14F
$$

...MARINE OBSERVATIONS...

STATION/POSITION TIME  SKY/WX   TEMP    WIND        PRES    VSBY  WAVE   SWELL
                                AIR SEA DIR/SP/G                  HT/PER HT/PER
                 (UTC)          (F)     (DEG/KT/KT) (MB)    (MI)  (FT/S) (FT/S)
PORT ARANSAS     0900            83 85  140/  6/  7 1014.7F
BUOY 90 E PORT A 0950            84 85  120/  4/  4 1014.3S         3/ 7   3/ 7
BUOY 45 SE BAFFI 0950            84     160/  4/  4 1013.0F         3/ 7   3/ 7
BUOY 200 E PT IS 0950            85 88   60/  4/  6 1013.5F         3/ 6   2/ 6
BUOY 15 E GALVES 0850            85 88  200/  4/  4 1014.7          2/ 7   2/ 7
$$




USA.gov is the U.S. government's official web portal to all federal, state and local government web resources and services.